| time (UTC) | temp C | wind direction | speed KPH | gust KPH | rain 1hr cm | rain 24hr cm | rain mn cm | humidity % | barometer mb |
| 20260507085106 | 10 | 333 | 4.8 | 9.7 | 0.00 | 0.00 | 0.00 | 50 | 1017.3 |
| 20260507084039 | 9 | 349 | 6.4 | 12.9 | 0.00 | 0.00 | 0.00 | 50 | 1017.3 |
| 20260507083014 | 9 | 333 | 3.2 | 12.9 | 0.00 | 0.00 | 0.00 | 48 | 1017.3 |
| 20260507081947 | 8 | 314 | 6.4 | 12.9 | 0.00 | 0.00 | 0.00 | 47 | 1017.3 |
| 20260507080916 | 8 | 314 | 4.8 | 12.9 | 0.00 | 0.00 | 0.00 | 47 | 1017.3 |
| 20260507074833 | 8 | 313 | 4.8 | 14.5 | 0.00 | 0.00 | 0.00 | 48 | 1016.9 |
| 20260507073807 | 8 | 303 | 4.8 | 16.1 | 0.00 | 0.00 | 0.00 | 48 | 1016.9 |
| 20260507071723 | 7 | 310 | 4.8 | 12.9 | 0.00 | 0.00 | 0.00 | 50 | 1016.9 |
| 20260507070655 | 7 | 340 | 6.4 | 14.5 | 0.00 | 0.00 | 0.00 | 52 | 1016.6 |
| 20260507065631 | 7 | 300 | 4.8 | 16.1 | 0.00 | 0.00 | 0.00 | 53 | 1016.6 |
| 20260507064544 | 7 | 338 | 4.8 | 17.7 | 0.00 | 0.00 | 0.00 | 56 | 1016.6 |
| 20260507063525 | 7 | 320 | 6.4 | 16.1 | 0.00 | 0.00 | 0.00 | 56 | 1016.6 |
| 20260507062454 | 6 | 351 | 1.6 | 12.9 | 0.00 | 0.00 | 0.00 | 55 | 1016.6 |
| 20260507061425 | 6 | 350 | 6.4 | 12.9 | 0.00 | 0.00 | 0.00 | 55 | 1016.3 |
| 20260507060353 | 6 | 5 | 6.4 | 16.1 | 0.00 | 0.00 | 0.00 | 57 | 1016.3 |
| 20260507055327 | 6 | 342 | 6.4 | 16.1 | 0.00 | 0.00 | 0.00 | 58 | 1016.3 |
| 20260507054259 | 5 | 333 | 4.8 | 12.9 | 0.00 | 0.00 | 0.00 | 58 | 1016.3 |
| 20260507053236 | 5 | 347 | 4.8 | 14.5 | 0.00 | 0.00 | 0.00 | 59 | 1016.3 |
| 20260507051154 | 5 | 327 | 4.8 | 14.5 | 0.00 | 0.00 | 0.00 | 59 | 1015.9 |
| 20260507050132 | 5 | 342 | 6.4 | 14.5 | 0.00 | 0.00 | 0.00 | 58 | 1015.9 |
| 20260507045102 | 5 | 350 | 6.4 | 16.1 | 0.00 | 0.00 | 0.00 | 58 | 1015.9 |
| 20260507044035 | 5 | 13 | 14.5 | 17.7 | 0.00 | 0.00 | 0.00 | 59 | 1015.9 |
| 20260507043007 | 5 | 321 | 6.4 | 16.1 | 0.00 | 0.00 | 0.00 | 58 | 1015.6 |
| 20260507041939 | 5 | 5 | 6.4 | 12.9 | 0.00 | 0.00 | 0.00 | 59 | 1015.6 |
| 20260507035857 | 5 | 23 | 8.0 | 9.7 | 0.00 | 0.00 | 0.00 | 59 | 1015.6 |
| 20260507033817 | 5 | 337 | 6.4 | 14.5 | 0.00 | 0.00 | 0.00 | 59 | 1015.2 |
| 20260507032755 | 5 | 333 | 4.8 | 12.9 | 0.00 | 0.00 | 0.00 | 59 | 1015.2 |
| 20260507031724 | 5 | 323 | 6.4 | 14.5 | 0.00 | 0.00 | 0.00 | 58 | 1015.2 |
| 20260507030657 | 5 | 46 | 4.8 | 12.9 | 0.00 | 0.00 | 0.00 | 55 | 1015.2 |
| 20260507025630 | 5 | 336 | 9.7 | 17.7 | 0.00 | 0.00 | 0.00 | 56 | 1015.2 |
| 20260507024601 | 5 | 330 | 4.8 | 16.1 | 0.00 | 0.00 | 0.00 | 57 | 1014.9 |
| 20260507023533 | 5 | 340 | 9.7 | 14.5 | 0.00 | 0.00 | 0.00 | 56 | 1014.9 |
| 20260507022506 | 5 | 43 | 6.4 | 16.1 | 0.00 | 0.00 | 0.00 | 55 | 1014.9 |
| 20260507021445 | 5 | 338 | 9.7 | 17.7 | 0.00 | 0.00 | 0.00 | 54 | 1014.9 |
| 20260507020417 | 5 | 316 | 9.7 | 12.9 | 0.00 | 0.00 | 0.00 | 55 | 1014.9 |
| 20260507015351 | 5 | 360 | 6.4 | 16.1 | 0.00 | 0.00 | 0.00 | 55 | 1014.9 |
| 20260507014342 | 5 | 326 | 8.0 | 14.5 | 0.00 | 0.00 | 0.00 | 54 | 1014.6 |
| 20260507013316 | 5 | 325 | 6.4 | 12.9 | 0.00 | 0.00 | 0.00 | 55 | 1014.6 |
| 20260507012248 | 6 | 331 | 4.8 | 12.9 | 0.00 | 0.00 | 0.00 | 58 | 1014.6 |
| 20260507011225 | 5 | 41 | 8.0 | 8.0 | 0.00 | 0.00 | 0.00 | 59 | 1014.6 |
| 20260507010155 | 6 | 333 | 6.4 | 12.9 | 0.00 | 0.00 | 0.00 | 60 | 1014.2 |
| 20260507004106 | 6 | 333 | 1.6 | 8.0 | 0.00 | 0.00 | 0.00 | 61 | 1014.2 |
| 20260507003041 | 6 | 355 | 6.4 | 8.0 | 0.00 | 0.00 | 0.00 | 60 | 1014.2 |
| 20260507002026 | 6 | 351 | 6.4 | 9.7 | 0.00 | 0.00 | 0.00 | 60 | 1014.2 |
| 20260507000956 | 6 | 334 | 6.4 | 14.5 | 0.00 | 0.00 | 0.00 | 59 | 1014.2 |
| 20260506235935 | 6 | 346 | 3.2 | 14.5 | 0.00 | 0.00 | 0.00 | 59 | 1013.9 |
| 20260506233850 | 6 | 360 | 4.8 | 16.1 | 0.00 | 0.00 | 0.00 | 56 | 1013.9 |
| 20260506232823 | 6 | 342 | 3.2 | 9.7 | 0.00 | 0.00 | 0.00 | 57 | 1013.9 |
| 20260506231756 | 6 | 315 | 3.2 | 19.3 | 0.00 | 0.00 | 0.00 | 56 | 1013.9 |
| 20260506230726 | 6 | 347 | 3.2 | 11.3 | 0.00 | 0.00 | 0.00 | 56 | 1013.5 |
| 20260506224706 | 6 | 16 | 6.4 | 12.9 | 0.00 | 0.00 | 0.00 | 57 | 1013.5 |
| 20260506223638 | 7 | 340 | 4.8 | 8.0 | 0.00 | 0.00 | 0.00 | 57 | 1013.5 |
| 20260506222614 | 7 | 327 | 3.2 | 14.5 | 0.00 | 0.00 | 0.00 | 54 | 1013.5 |
| 20260506220531 | 7 | 30 | 3.2 | 14.5 | 0.00 | 0.00 | 0.00 | 54 | 1013.2 |
| 20260506215530 | 7 | 340 | 6.4 | 12.9 | 0.00 | 0.00 | 0.00 | 53 | 1013.2 |
| 20260506214500 | 7 | 320 | 3.2 | 8.0 | 0.00 | 0.00 | 0.00 | 53 | 1013.2 |
| 20260506213436 | 7 | 333 | 3.2 | 9.7 | 0.00 | 0.00 | 0.00 | 53 | 1012.9 |
| 20260506212410 | 7 | 17 | 1.6 | 6.4 | 0.00 | 0.00 | 0.00 | 52 | 1012.9 |
| 20260506211342 | 7 | 331 | 1.6 | 9.7 | 0.00 | 0.00 | 0.00 | 53 | 1012.9 |
| 20260506210315 | 8 | 19 | 3.2 | 14.5 | 0.00 | 0.00 | 0.00 | 54 | 1012.9 |
| 20260506205253 | 8 | 350 | 1.6 | 14.5 | 0.00 | 0.00 | 0.00 | 53 | 1012.9 |
| 20260506204219 | 8 | 360 | 3.2 | 14.5 | 0.00 | 0.00 | 0.00 | 52 | 1012.5 |
| 20260506203146 | 8 | 331 | 6.4 | 9.7 | 0.00 | 0.00 | 0.00 | 55 | 1012.5 |
| 20260506202117 | 8 | 98 | 1.6 | 12.9 | 0.00 | 0.00 | 0.00 | 52 | 1012.2 |
| 20260506200015 | 8 | 258 | 3.2 | 4.8 | 0.00 | 0.00 | 0.00 | 52 | 1012.2 |
| 20260506194947 | 8 | 258 | 1.6 | 4.8 | 0.00 | 0.00 | 0.00 | 51 | 1012.2 |
| 20260506191839 | 9 | 211 | 0.0 | 4.8 | 0.00 | 0.00 | 0.00 | 51 | 1012.2 |
| 20260506190810 | 9 | 212 | 1.6 | 11.3 | 0.00 | 0.00 | 0.00 | 50 | 1012.2 |
| 20260506185739 | 9 | 271 | 1.6 | 9.7 | 0.00 | 0.00 | 0.00 | 51 | 1012.2 |
| 20260506184710 | 9 | 216 | 3.2 | 9.7 | 0.00 | 0.00 | 0.00 | 51 | 1012.2 |
| 20260506183639 | 9 | 252 | 1.6 | 6.4 | 0.00 | 0.00 | 0.00 | 50 | 1011.9 |
| 20260506181553 | 9 | 215 | 3.2 | 8.0 | 0.00 | 0.00 | 0.00 | 48 | 1011.9 |
| 20260506180531 | 9 | 198 | 8.0 | 9.7 | 0.00 | 0.00 | 0.00 | 49 | 1011.9 |
| 20260506175455 | 9 | 214 | 1.6 | 9.7 | 0.00 | 0.00 | 0.00 | 53 | 1011.9 |
| 20260506174438 | 9 | 218 | 8.0 | 12.9 | 0.00 | 0.00 | 0.00 | 54 | 1011.9 |
| 20260506172405 | 9 | 167 | 6.4 | 12.9 | 0.00 | 0.00 | 0.00 | 47 | 1011.9 |
| 20260506171353 | 9 | 235 | 14.5 | 14.5 | 0.00 | 0.00 | 0.00 | 48 | 1011.9 |
| 20260506170328 | 9 | 159 | 8.0 | 12.9 | 0.00 | 0.00 | 0.00 | 52 | 1011.9 |
| 20260506165256 | 10 | 180 | 4.8 | 14.5 | 0.00 | 0.00 | 0.00 | 51 | 1011.9 |
| 20260506164225 | 10 | 177 | 4.8 | 14.5 | 0.00 | 0.00 | 0.00 | 49 | 1011.9 |
| 20260506163156 | 10 | 188 | 6.4 | 14.5 | 0.00 | 0.00 | 0.00 | 51 | 1011.9 |
| 20260506161113 | 10 | 207 | 6.4 | 12.9 | 0.00 | 0.00 | 0.00 | 51 | 1011.9 |
| 20260506160044 | 10 | 167 | 8.0 | 14.5 | 0.00 | 0.00 | 0.00 | 48 | 1011.9 |
| 20260506154939 | 10 | 215 | 3.2 | 14.5 | 0.00 | 0.00 | 0.00 | 46 | 1011.9 |
| 20260506153918 | 10 | 196 | 12.9 | 16.1 | 0.00 | 0.00 | 0.00 | 47 | 1011.9 |
| 20260506152854 | 10 | 169 | 9.7 | 16.1 | 0.00 | 0.00 | 0.00 | 48 | 1011.9 |
| 20260506151830 | 10 | 177 | 9.7 | 19.3 | 0.00 | 0.00 | 0.00 | 45 | 1011.9 |
| 20260506150806 | 10 | 183 | 9.7 | 17.7 | 0.00 | 0.00 | 0.00 | 46 | 1012.2 |
| 20260506145738 | 10 | 186 | 9.7 | 19.3 | 0.00 | 0.00 | 0.00 | 45 | 1012.2 |
| 20260506144644 | 10 | 152 | 8.0 | 17.7 | 0.00 | 0.00 | 0.00 | 42 | 1012.2 |
| 20260506143543 | 10 | 167 | 9.7 | 17.7 | 0.00 | 0.00 | 0.00 | 42 | 1012.2 |
| 20260506142524 | 11 | 213 | 9.7 | 17.7 | 0.00 | 0.00 | 0.00 | 45 | 1012.2 |
| 20260506140455 | 11 | 214 | 3.2 | 14.5 | 0.00 | 0.00 | 0.00 | 39 | 1012.2 |
| 20260506135435 | 10 | 200 | 12.9 | 24.1 | 0.00 | 0.00 | 0.00 | 42 | 1012.2 |
| 20260506134407 | 11 | 203 | 6.4 | 24.1 | 0.00 | 0.00 | 0.00 | 37 | 1012.2 |
| 20260506133340 | 11 | 155 | 4.8 | 16.1 | 0.00 | 0.00 | 0.00 | 34 | 1012.2 |
| 20260506132313 | 12 | 176 | 1.6 | 8.0 | 0.00 | 0.00 | 0.00 | 32 | 1012.2 |
| 20260506131247 | 11 | 11 | 4.8 | 11.3 | 0.00 | 0.00 | 0.00 | 32 | 1012.2 |
| 20260506125156 | 11 | 28 | 8.0 | 11.3 | 0.00 | 0.00 | 0.00 | 30 | 1012.5 |
| 20260506124130 | 11 | 328 | 1.6 | 11.3 | 0.00 | 0.00 | 0.00 | 31 | 1012.5 |
| 20260506123102 | 12 | 38 | 1.6 | 11.3 | 0.00 | 0.00 | 0.00 | 32 | 1012.5 |
| 20260506122030 | 11 | 348 | 3.2 | 11.3 | 0.00 | 0.00 | 0.00 | 28 | 1012.5 |
| 20260506120957 | 11 | 152 | 0.0 | 8.0 | 0.00 | 0.00 | 0.00 | 28 | 1012.9 |
| 20260506115935 | 11 | 308 | 0.0 | 8.0 | 0.00 | 0.00 | 0.00 | 29 | 1012.9 |
| 20260506114913 | 11 | 34 | 3.2 | 8.0 | 0.00 | 0.00 | 0.00 | 33 | 1012.9 |
| 20260506113839 | 10 | 340 | 3.2 | 9.7 | 0.00 | 0.00 | 0.00 | 34 | 1012.9 |
| 20260506112734 | 10 | 275 | 0.0 | 9.7 | 0.00 | 0.00 | 0.00 | 34 | 1012.9 |
| 20260506111707 | 10 | 248 | 1.6 | 8.0 | 0.00 | 0.00 | 0.00 | 35 | 1013.2 |
| 20260506105623 | 10 | 243 | 4.8 | 9.7 | 0.00 | 0.00 | 0.00 | 34 | 1013.2 |
| 20260506104556 | 9 | 254 | 4.8 | 11.3 | 0.00 | 0.00 | 0.00 | 34 | 1013.2 |
| 20260506103525 | 10 | 251 | 1.6 | 8.0 | 0.00 | 0.00 | 0.00 | 33 | 1013.2 |
| 20260506102456 | 9 | 346 | 4.8 | 8.0 | 0.00 | 0.00 | 0.00 | 35 | 1013.2 |
| 20260506101429 | 10 | 250 | 0.0 | 11.3 | 0.00 | 0.00 | 0.00 | 39 | 1013.2 |
| 20260506100401 | 10 | 342 | 3.2 | 9.7 | 0.00 | 0.00 | 0.00 | 43 | 1013.2 |
| 20260506095332 | 9 | 200 | 3.2 | 9.7 | 0.00 | 0.00 | 0.00 | 45 | 1013.2 |
| 20260506094309 | 9 | 236 | 6.4 | 12.9 | 0.00 | 0.00 | 0.00 | 48 | 1013.2 |
| 20260506093241 | 9 | 321 | 1.6 | 12.9 | 0.00 | 0.00 | 0.00 | 47 | 1013.2 |
| 20260506092221 | 8 | 24 | 4.8 | 8.0 | 0.00 | 0.00 | 0.00 | 49 | 1013.2 |
| 20260506091153 | 8 | 290 | 4.8 | 14.5 | 0.00 | 0.00 | 0.00 | 48 | 1013.2 |